Location: Unspecified
(0.0000°N, 0.0000°E)
Time: 21:37:06
(UTC+00:00)

Vanguard 1 Rocket - Pass Details

Date: 23 January 2020
Orbit: 650 x 4226 km, 34.3° (Epoch: 23 February)

Event Time Altitude Azimuth Distance (km) Brightness Sun altitude
Rises 04:53:27 0° 213° (SSW) 3,173 10.1 -18.4°
Reaches altitude 10° 04:56:26 10° 196° (SSW) 2,092 9.3 -17.7°
Maximum altitude 04:59:52 21° 144° (SE) 1,444 9.1 -16.9°
Drops below altitude 10° 05:03:24 10° 94° (E) 2,155 10.5 -16.1°
Sets 05:06:31 0° 77° (ENE) 3,299 11.3 -15.3°
